This is the latest recevied weather packets stored in our database for station/object UR7D-12. If no packets are shown the sender has not sent any weather packets the latest 10 day(s).
| Time | Temp. | Humidity | Pressure | Rain* | Wind** | Luminosity | Snow |
|---|---|---|---|---|---|---|---|
| 1777631386 | 13.33° C | 36% | 999.2 hPa | 0 mm | - | - | - |
| 1777630786 | 12.78° C | 38% | 999.3 hPa | 0 mm | - | - | - |
| 1777630186 | 12.78° C | 39% | 999.3 hPa | 0 mm | - | - | - |
| 1777629885 | 12.22° C | 40% | 999.3 hPa | 0 mm | - | - | - |
| 1777629582 | 12.22° C | 38% | 999.4 hPa | 0 mm | - | - | - |
| 1777629283 | 12.22° C | 38% | 999.4 hPa | 0 mm | - | - | - |
| 1777628682 | 11.67° C | 38% | 999.5 hPa | 0 mm | - | - | - |
| 1777628384 | 11.67° C | 38% | 999.5 hPa | 0 mm | - | - | - |
| 1777628082 | 11.67° C | 39% | 999.6 hPa | 0 mm | - | - | - |
| 1777627781 | 11.67° C | 38% | 999.6 hPa | 0 mm | - | - | - |
| 1777627481 | 11.67° C | 41% | 999.6 hPa | 0 mm | - | - | - |
| 1777627183 | 11.11° C | 38% | 999.6 hPa | 0 mm | - | - | - |
| 1777626882 | 11.11° C | 38% | 999.6 hPa | 0 mm | - | - | - |
| 1777626579 | 11.11° C | 38% | 999.6 hPa | 0 mm | - | - | - |
| 1777626280 | 11.67° C | 40% | 999.6 hPa | 0 mm | - | - | - |
| 1777625981 | 11.11° C | 39% | 999.6 hPa | 0 mm | - | - | - |
| 1777625681 | 11.11° C | 42% | 999.7 hPa | 0 mm | - | - | - |
| 1777625381 | 11.11° C | 41% | 999.7 hPa | 0 mm | - | - | - |
| 1777625078 | 11.67° C | 38% | 999.8 hPa | 0 mm | - | - | - |
| 1777624780 | 11.67° C | 40% | 1000 hPa | 0 mm | - | - | - |
| 1777624477 | 11.67° C | 43% | 1000 hPa | 0 mm | - | - | - |
| 1777624177 | 11.11° C | 40% | 1000 hPa | 0 mm | - | - | - |
| 1777623879 | 11.11° C | 39% | 1000.1 hPa | 0 mm | - | - | - |
| 1777623577 | 11.11° C | 39% | 1000.1 hPa | 0 mm | - | - | - |
| 1777622976 | 10.56° C | 39% | 1000.1 hPa | 0 mm | - | - | - |
* Rain latest hour (hover to see other rain measurements)
** Current wind speed in m/s (hover to see current wind gust speed)